www.pogodaiklimat.ru

Погода и климат >> Архив погоды >> Бразилия >> Ibotirama


ПОГОДА в Ibotirama

  • Прогноз погоды в Ibotirama
  • Монитор погоды в Ibotirama
  • Климат города

АРХИВ ПОГОДЫ в Ibotirama

Время (UTC), дата Ветер
(напр.,м/с)
 
Видим.   Явления Облачность Т
(С)
Тd
(С)
f
(%)
Тe
(С)
Тes
(С)
Комфортность P
(гПа)
Po
(гПа)
Тmin
(С)
Tmax
(С)
R
(мм)
R24
(мм)
S
(см)
02 8.12 штиль 0 н/о н/о +23.0 +21.3 90 +31 +31 очень
душно
1014.3 965.7
01 8.12 штиль 0
{1}
н/о н/о +24.1 +21.4 85 +31 +31 очень
душно
1013.9 965.5
03 8.12 штиль 0 н/о н/о +22.9 +21.2 90 +30 +30 очень
душно
1014.0 965.4 0.2
04 8.12 штиль 0 н/о н/о +22.6 +21.0 91 +30 +30 очень
душно
1013.6 965.0
05 8.12 штиль 0 н/о н/о +22.6 +21.1 91 +30 +30 очень
душно
1013.2 964.6
06 8.12 СВ 1
{1}
н/о н/о +23.1 +21.0 88 +31 +31 очень
душно
1013.0 964.5
08 8.12 Ю 1
{2}
н/о н/о +22.9 +21.0 89 +30 +30 очень
душно
1012.9 964.4
07 8.12 С 1
{2}
н/о н/о +23.7 +21.1 85 +30 +30 очень
душно
1013.0 964.6
09 8.12 штиль 0
{1}
н/о н/о +22.6 +21.0 91 +30 +30 очень
душно
1013.8 965.2
10 8.12 штиль 0
{2}
н/о н/о +24.7 +20.6 78 +31 +31 очень
душно
1013.6 965.3
11 8.12 С 1
{2}
н/о н/о +27.1 +21.3 71 +34 +34 очень
душно
1013.4 965.5
12 8.12 З 1
{2}
н/о н/о +28.9 +22.1 67 +38 +38 очень
душно
1013.5 965.9
14 8.12 СЗ 2
{4}
н/о н/о +30.7 +20.2 54 +37 +37 очень
душно
1012.8 965.5
13 8.12 СЗ 2
{4}
н/о н/о +29.9 +21.6 61 +38 +38 очень
душно
1013.2 965.8
15 8.12 С 1
{4}
н/о н/о +32.5 +20.6 50 +40 +40 очень
душно
1011.1 964.2
16 8.12 СЗ 1
{4}
н/о н/о +32.6 +20.1 48 +39 +39 очень
душно
1010.1 963.2
17 8.12 З 1
{4}
н/о н/о +31.9 +20.7 52 +39 +39 очень
душно
1008.3 961.4
18 8.12 ЮЗ 2
{4}
н/о н/о +27.9 +20.7 65 +35 +35 очень
душно
1009.0 961.5
20 8.12 В 4
{10}
н/о н/о +20.4 +18.8 91 +24 +24 комфорт 1012.0 963.1
19 8.12 Ю 2
{4}
н/о н/о +29.7 +21.5 61 +38 +38 очень
душно
1008.9 961.6
21 8.12 ЮЗ 1
{6}
н/о н/о +21.7 +20.2 91 +27 +27 душно 1012.8 964.1
22 8.12 В 2
{3}
н/о н/о +21.5 +20.0 91 +27 +27 душно 1012.8 964.1
23 8.12 ЮЗ 1
{2}
н/о н/о +21.3 +19.8 91 +26 +26 душно 1013.3 964.5
00 9.12 ЮВ 1
{3}
н/о н/о +21.4 +19.8 91 +26 +26 душно 1014.2 965.4
02 9.12 Ю 1
{1}
н/о н/о +21.1 +19.9 93 +26 +26 душно 1014.7 965.8
01 9.12 штиль 0
{2}
н/о н/о +21.2 +19.9 92 +26 +26 душно 1014.3 965.4
03 9.12 штиль 0
{3}
н/о н/о +21.4 +20.1 92 +27 +27 душно 1014.1 965.3
04 9.12 СЗ 1
{2}
н/о н/о +21.3 +20.0 92 +26 +26 душно 1014.1 965.3
05 9.12 штиль 0
{2}
н/о н/о +21.5 +20.2 92 +27 +27 душно 1013.3 964.5
06 9.12 штиль 0
{2}
н/о н/о +21.7 +20.4 92 +27 +27 душно 1013.7 965.0
08 9.12 ЮЗ 1
{2}
н/о н/о +21.6 +20.3 92 +27 +27 душно 1015.0 966.2
07 9.12 штиль 0
{2}
н/о н/о +21.7 +20.3 92 +27 +27 душно 1014.6 965.8 0.2
09 9.12 штиль 0
{2}
н/о н/о +21.6 +20.4 93 +27 +27 душно 1016.0 967.1
10 9.12 Ю 1
{2}
н/о н/о +21.9 +20.6 92 +28 +28 душно 1016.6 967.7
11 9.12 Ю 1
{2}
н/о н/о +22.5 +20.5 88 +29 +29 очень
душно
1017.3 968.5
12 9.12 Ю 1
{2}
н/о н/о +23.7 +20.6 83 +30 +30 очень
душно
1017.9 969.3
14 9.12 ЮЗ 2
{3}
н/о н/о +24.0 +20.6 81 +30 +30 очень
душно
1018.3 969.7
13 9.12 Ю 1
{2}
н/о н/о +25.0 +20.4 76 +31 +31 очень
душно
1018.1 969.7
15 9.12 Ю 2
{3}
н/о н/о +24.0 +20.5 81 +30 +30 очень
душно
1018.1 969.5
16 9.12 Ю 2
{3}
н/о н/о +24.0 +21.4 85 +30 +30 очень
душно
1017.5 968.9
17 9.12 Ю 2
{3}
н/о н/о +24.9 +21.4 81 +32 +32 очень
душно
1016.4 968.0
18 9.12 Ю 2
{3}
н/о н/о +25.3 +21.1 78 +32 +32 очень
душно
1015.6 967.3
19 9.12 ЮЗ 1
{3}
н/о н/о +25.0 +21.3 80 +32 +32 очень
душно
1015.4 967.1
01 10.12 Ю 2
{2}
н/о н/о +20.8 +19.6 93 +26 +26 душно 1020.1 970.9
02 10.12 Ю 2
{3}
н/о н/о +20.4 +19.5 95 +25 +25 комфорт 1019.7 970.5
06 10.12 Ю 1
{2}
н/о н/о +20.9 +19.9 94 +27 +27 душно 1018.4 969.3
07 10.12 штиль 0
{2}
н/о н/о +21.0 +20.0 94 +26 +26 душно 1018.2 969.1
08 10.12 Ю 1
{2}
н/о н/о +21.1 +20.2 95 +26 +26 душно 1018.2 969.1
10 10.12 Ю 1
{2}
н/о н/о +21.7 +20.5 93 +27 +27 душно 1019.4 970.4
11 10.12 Ю 1
{3}
н/о н/о +22.1 +20.2 89 +28 +28 душно 1019.8 970.8
13 10.12 Ю 2
{3}
н/о н/о +23.9 +20.0 79 +29 +29 душно 1020.2 971.5
14 10.12 Ю 2
{3}
н/о н/о +25.0 +20.4 76 +31 +31 очень
душно
1019.6 971.1
15 10.12 ЮЗ 1
{3}
н/о н/о +26.4 +20.5 70 +33 +33 очень
душно
1018.8 970.6
16 10.12 Ю 2
{3}
н/о н/о +28.4 +22.1 69 +37 +37 очень
душно
1017.7 969.8
17 10.12 ЮЗ 3
{4}
н/о н/о +28.4 +20.7 63 +35 +35 очень
душно
1016.5 968.7
18 10.12 ЮЗ 2
{4}
н/о н/о +27.6 +21.4 69 +35 +35 очень
душно
1015.6 967.7
00 11.12 Ю 1
{2}
н/о н/о +21.3 +19.5 89 +26 +26 душно 1018.6 969.6
01 11.12 ЮЗ 1
{2}
н/о н/о +21.2 +19.6 91 +26 +26 душно 1019.3 970.2 0.2
02 11.12 штиль 0
{2}
н/о н/о +21.2 +19.7 91 +26 +26 душно 1019.5 970.4
03 11.12 ЮВ 1
{2}
н/о н/о +21.5 +19.5 88 +26 +26 душно 1018.6 969.6
04 11.12 штиль 0
{2}
н/о н/о +21.1 +19.3 89 +26 +26 душно 1017.7 968.7
05 11.12 штиль 0
{1}
н/о н/о +21.2 +19.5 90 +26 +26 душно 1017.0 968.0
06 11.12 штиль 0
{1}
н/о н/о +21.0 +19.4 91 +25 +25 комфорт 1016.8 967.8
07 11.12 Ю 1
{2}
н/о н/о +21.5 +19.9 91 +27 +27 душно 1016.8 967.9
08 11.12 Ю 1
{2}
н/о н/о +21.2 +19.7 91 +26 +26 душно 1017.2 968.2
09 11.12 Ю 1
{2}
н/о н/о +21.3 +19.8 91 +26 +26 душно 1017.7 968.7
10 11.12 Ю 1
{2}
н/о н/о +22.3 +20.3 88 +29 +29 очень
душно
1018.2 969.3
11 11.12 Ю 2
{4}
н/о н/о +24.3 +19.6 75 +30 +30 очень
душно
1018.4 969.8
12 11.12 Ю 2
{3}
н/о н/о +25.4 +20.0 72 +31 +31 очень
душно
1018.6 970.2
13 11.12 Ю 2
{3}
н/о н/о +26.8 +21.0 71 +34 +34 очень
душно
1018.3 970.1
14 11.12 Ю 2
{3}
н/о н/о +28.1 +20.8 65 +35 +35 очень
душно
1017.8 969.9
15 11.12 В 2
{4}
н/о н/о +31.0 +19.2 49 +36 +36 очень
душно
1016.5 969.1
16 11.12 В 2
{4}
н/о н/о +32.0 +18.6 45 +37 +37 очень
душно
1015.3 968.1
17 11.12 В 2
{4}
н/о н/о +32.1 +18.3 44 +37 +37 очень
душно
1014.5 967.3
18 11.12 В 2
{4}
н/о н/о +32.1 +18.1 43 +36 +36 очень
душно
1013.1 966.0
19 11.12 ЮВ 1
{4}
н/о н/о +30.9 +17.5 45 +35 +35 очень
душно
1013.2 965.9
20 11.12 СВ 2
{3}
н/о н/о +27.8 +17.9 55 +32 +32 душно 1013.7 965.9
21 11.12 ЮЗ 1
{3}
н/о н/о +27.1 +20.9 69 +34 +34 очень
душно
1014.4 966.5
22 11.12 Ю 1
{2}
н/о н/о +26.5 +21.1 72 +33 +33 очень
душно
1015.0 967.0
23 11.12 штиль 0
{1}
н/о н/о +24.7 +21.4 82 +31 +31 очень
душно
1015.7 967.3
00 12.12 ЮВ 1
{2}
н/о н/о +23.9 +20.4 81 +30 +30 очень
душно
1016.1 967.6
01 12.12 С 1
{2}
н/о н/о +22.9 +20.3 85 +30 +30 очень
душно
1016.8 968.1
02 12.12 штиль 0
{1}
н/о н/о +22.5 +19.9 85 +29 +29 очень
душно
1017.1 968.3
03 12.12 штиль 0
{1}
н/о н/о +22.0 +20.2 90 +28 +28 душно 1017.0 968.1
04 12.12 ЮВ 1
{1}
н/о н/о +22.0 +19.9 88 +28 +28 душно 1016.4 967.6
05 12.12 штиль 0
{1}
н/о н/о +21.5 +19.8 90 +27 +27 душно 1016.2 967.3
06 12.12 В 2
{3}
н/о н/о +23.7 +18.8 74 +28 +28 душно 1015.7 967.2
07 12.12 В 1
{3}
н/о н/о +23.7 +17.1 67 +28 +28 душно 1015.8 967.3
08 12.12 В 1
{3}
н/о н/о +22.7 +16.8 69 +27 +27 душно 1016.6 967.9
09 12.12 штиль 0
{2}
н/о н/о +22.3 +16.7 71 +27 +27 душно 1017.2 968.4
10 12.12 В 1
{2}
н/о н/о +23.8 +17.1 66 +28 +28 душно 1017.5 968.9
11 12.12 ЮВ 2
{3}
н/о н/о +25.2 +17.0 60 +29 +29 душно 1017.9 969.5
12 12.12 ЮВ 1
{3}
н/о н/о +26.5 +17.1 56 +30 +30 душно 1018.1 969.9
13 12.12 В 2
{4}
н/о н/о +28.0 +18.0 55 +33 +33 очень
душно
1017.8 969.9
14 12.12 В 2
{4}
н/о н/о +28.3 +17.6 52 +32 +32 душно 1017.2 969.3
15 12.12 В 2
{3}
н/о н/о +29.1 +17.5 50 +33 +33 очень
душно
1016.1 968.4
16 12.12 В 2
{4}
н/о н/о +29.8 +18.5 51 +35 +35 очень
душно
1014.8 967.3
17 12.12 В 2
{3}
н/о н/о +30.3 +17.3 46 +34 +34 очень
душно
1013.9 966.5
18 12.12 В 2
{3}
н/о н/о +30.2 +17.0 45 +34 +34 очень
душно
1013.4 966.0
19 12.12 В 2
{3}
н/о н/о +29.3 +18.0 51 +34 +34 очень
душно
1013.3 965.8
20 12.12 В 1
{3}
н/о н/о +29.0 +17.8 51 +33 +33 очень
душно
1013.1 965.5
21 12.12 В 2
{3}
н/о н/о +28.0 +17.0 51 +32 +32 душно 1013.3 965.6
22 12.12 В 2
{3}
н/о н/о +27.0 +15.2 48 +30 +30 душно 1013.6 965.7
23 12.12 В 2
{4}
н/о н/о +27.0 +14.3 46 +29 +29 жарко 1013.9 966.0
00 13.12 В 2
{4}
н/о н/о +26.3 +14.4 48 +29 +29 жарко 1014.5 966.4
01 13.12 В 3
{5}
н/о н/о +26.8 +14.1 46 +29 +29 жарко 1014.5 966.5
02 13.12 В 2
{5}
н/о н/о +26.2 +14.4 48 +29 +29 жарко 1014.4 966.3
03 13.12 В 2
{4}
н/о н/о +25.9 +14.4 49 +28 +28 жарко 1014.0 965.9
04 13.12 В 2
{4}
н/о н/о +24.9 +14.9 54 +28 +28 жарко 1014.1 965.8
05 13.12 В 2
{4}
н/о н/о +24.6 +15.1 55 +27 +27 жарко 1013.7 965.4
06 13.12 В 2
{4}
н/о н/о +23.9 +15.3 59 +27 +27 жарко 1014.1 965.7
07 13.12 штиль 0
{4}
н/о н/о +21.0 +16.3 75 +24 +24 комфорт 1014.9 966.0
08 13.12 штиль 0
{2}
н/о н/о +21.6 +16.4 72 +25 +25 комфорт 1015.2 966.4
09 13.12 штиль 0
{1}
н/о н/о +21.7 +16.3 71 +25 +25 комфорт 1016.1 967.2
10 13.12 штиль 0
{1}
н/о н/о +21.5 +18.3 82 +26 +26 душно 1016.6 967.7
11 13.12 штиль 0
{1}
н/о н/о +25.6 +18.5 65 +30 +30 душно 1016.2 968.0
12 13.12 В 2
{3}
н/о н/о +27.3 +17.1 54 +31 +31 душно 1016.1 968.1
13 13.12 В 2
{4}
н/о н/о +28.0 +17.4 53 +32 +32 душно 1016.5 968.6
14 13.12 ЮВ 1
{3}
н/о н/о +28.0 +17.9 54 +32 +32 душно 1016.3 968.4
15 13.12 ЮВ 2
{3}
н/о н/о +28.2 +18.5 56 +33 +33 очень
душно
1015.7 967.9
16 13.12 В 2
{3}
н/о н/о +28.4 +18.3 54 +33 +33 очень
душно
1014.9 967.2
17 13.12 В 2
{3}
н/о н/о +29.6 +17.8 49 +34 +34 очень
душно
1014.0 966.5
18 13.12 В 2
{3}
н/о н/о +29.6 +19.1 53 +35 +35 очень
душно
1013.2 965.7
19 13.12 В 1
{3}
н/о н/о +28.9 +19.2 56 +34 +34 очень
душно
1013.1 965.5
20 13.12 В 1
{3}
н/о н/о +27.9 +18.3 56 +33 +33 очень
душно
1013.2 965.5
21 13.12 В 1
{2}
н/о н/о +27.2 +17.0 54 +31 +31 душно 1013.4 965.5
22 13.12 штиль 0
{2}
н/о н/о +25.5 +18.1 64 +30 +30 душно 1013.3 965.2
23 13.12 В 1
{3}
н/о н/о +26.1 +15.9 53 +29 +29 жарко 1013.5 965.5
00 14.12 ЮЗ 1
{2}
н/о н/о +23.9 +17.4 67 +28 +28 душно 1014.1 965.7
01 14.12 штиль 0
{2}
н/о н/о +23.0 +17.1 69 +28 +28 душно 1014.6 966.0
02 14.12 штиль 0
{1}
н/о н/о +22.9 +16.5 67 +28 +28 душно 1014.3 965.7
03 14.12 штиль 0
{1}
н/о н/о +21.3 +17.1 77 +25 +25 комфорт 1014.9 966.0
04 14.12 штиль 0
{1}
н/о н/о +21.0 +17.6 81 +25 +25 комфорт 1014.6 965.7
05 14.12 штиль 0
{1}
н/о н/о +20.7 +17.5 82 +24 +24 комфорт 1014.4 965.5
06 14.12 штиль 0
{2}
н/о н/о +20.8 +17.7 82 +24 +24 комфорт 1014.5 965.6
07 14.12 штиль 0
{2}
н/о н/о +21.7 +17.2 76 +26 +26 душно 1014.7 965.9
08 14.12 ЮВ 2
{3}
н/о н/о +23.2 +16.4 66 +28 +28 душно 1015.2 966.6
09 14.12 штиль 0
{3}
н/о н/о +22.0 +16.8 72 +26 +26 душно 1016.2 967.4
10 14.12 штиль 0 н/о н/о +23.7 +16.7 65 +27 +27 жарко 1016.4 967.8
11 14.12 В 1
{2}
н/о н/о +26.5 +17.5 58 +31 +31 душно 1016.2 968.1
12 14.12 В 2
{4}
н/о н/о +27.5 +16.7 52 +31 +31 душно 1016.2 968.3
13 14.12 В 2
{3}
н/о н/о +27.6 +16.3 50 +31 +31 душно 1016.0 968.1
14 14.12 В 2
{3}
н/о н/о +30.0 +16.8 45 +34 +34 очень
душно
1015.1 967.6
15 14.12 В 1
{3}
н/о н/о +31.9 +15.0 36 +34 +34 душно 1014.0 966.8
16 14.12 ЮЗ 1
{3}
н/о н/о +31.9 +17.0 41 +35 +35 очень
душно
1013.2 966.1
17 14.12 ЮЗ 2
{3}
н/о н/о +32.7 +17.3 40 +36 +36 очень
душно
1012.2 965.2
18 14.12 ЮЗ 2
{3}
н/о н/о +32.1 +17.4 42 +36 +36 очень
душно
1011.7 964.7
19 14.12 ЮЗ 1
{3}
н/о н/о +30.9 +17.1 44 +35 +35 очень
душно
1012.0 964.8
20 14.12 Ю 1
{3}
н/о н/о +30.3 +16.4 43 +34 +34 очень
душно
1012.2 964.9
21 14.12 Ю 1
{2}
н/о н/о +28.5 +17.3 51 +33 +33 очень
душно
1012.9 965.3
22 14.12 штиль 0
{2}
н/о н/о +26.3 +17.3 58 +30 +30 душно 1013.9 965.9 0.2
23 14.12 ЮВ 1
{1}
н/о н/о +25.4 +16.4 57 +29 +29 душно 1014.8 966.6
00 15.12 ЮВ 2
{2}
н/о н/о +25.5 +15.2 53 +28 +28 жарко 1015.3 967.1

 

Местоположение метеостанции Ibotirama (Бразилия): широта -12.20 долгота -43.22 высота над уровнем моря 432 м.

В архиве по умолчанию представлена погода в Ibotirama за последнюю неделю. Архивные данные за месяц целиком и за предыдущие месяцы, начиная с января 2011 года, Вы можете получить, выбрав интересующий диапазон дат из раскрывающегося списка и нажав кнопку "Ввод!".


*Определитесь, кто Вы:
робот инопланетянин человек

Внимание! Время в таблицах - всемирное. Для получения местного времени необходимо прибавить поправку, которая в Ibotirama равна -3 ч.

Смотрите также архив погоды в соседних городах и на ближайших метеорологических станциях:

Погода в Bom Jesus da Lapa (Бразилия) (120 км)
Погода в Bom Jesus da Lapa (Бразилия) (121 км)
Погода в Barra (Бразилия) (125 км)
Погода в Barra (Бразилия) (125 км)
Погода в Buritirama (Бразилия) (171 км)
Погода в Irece (Бразилия) (176 км)
Погода в Piata (Бразилия) (190 км)
Погода в Barreiras (Бразилия) (194 км)
Погода в Barreiras (Бразилия) (194 км)
Погода в Santa Rita de Cassia (Бразилия) (194 км)

Пояснения к столбцам:

Ветер - указаны скорость ветра в м/с - средняя за 10 мин, порывы в срок и между сроками (в фигурных скобках) и направление, откуда дует ветер: С - северный, СВ - северо-восточный, В - восточный, ЮВ - юго-восточный, Ю - южный, ЮЗ - юго-западный, З - западный, СЗ - северо-западный.
Видимость - горизонтальная дальность видимости в метрах или километрах. При видимости от 1 до 10 км при отсутствии осадков обычно наблюдается дымка, при ухудшении видимости до 1 км и менее - туман. В сухую погоду видимость может ухудшаться дымом, пылью или мглою.
Явления - указаны атмосферные явления, наблюдавшиеся в срок или в последний час перед сроком; фигурными скобками обозначены явления, наблюдавшиеся между сроками (за 1-3 часа до срока); квадратными скобками обозначены град или гололедные отложения с указанием их диаметра в мм.
Облачность - указаны через наклонную черту общая и нижняя облачность в баллах и высота нижней границы облаков в метрах; квадратными скобками обозначены формы облаков: Ci - перистые, Cs - перисто-слоистые, Cc - перисто-кучевые, Ac - высококучевые, As - высокослоистые, Sc - слоисто-кучевые, Ns - слоисто-дождевые, Cu - кучевые, Cb - кучево-дождевые. Подробнее классификацию облаков см. в Атласе облаков (PDF).
T - Температура воздуха - температура, измеренная на высоте 2 м над землей.
Td - Температура точки росы - температура, при понижении до которой содержащийся в воздухе водяной пар достигнет насыщения.
f - Относительная влажность воздуха - влажноcть воздуха, измеренная на высоте 2 м над землей.
Te - Эффективная температура - температура, которую ощущает одетый по сезону человек в тени. Характеристика душности погоды. При расчете учитывается влияние влажности воздуха и скорости ветра на теплоощущения человека.
Tes - Эффективная температура на солнце - температура, которую ощущает человек, с поправкой на солнечный нагрев. Характеристика знойности погоды. Зависит от высоты солнца над горизонтом, облачности и скорости ветра. Ночью, в пасмурную погоду, а также при ветре 12 м/с и более поправка равна нулю.
P - Атмосферное давление - приведенное к уровню моря атмосферное давление.
Po - Атмосферное давление - измеренное на уровне метеостанции атмосферное давление.
Tmin - Минимальная температура - минимум температуры воздуха на высоте 2 м над землей.
Tmax - Максимальная температура - максимум температуры воздуха на высоте 2 м над землей.
R - Количество осадков - Количество выпавших осадков за период времени, мм. При наведении курсора мыши на число - период времени, за который выпало указанное количество осадков.
R24 - Количество осадков - Количество выпавших осадков за 24 часа, мм.
S - Снежный покров - Высота снежного покрова, см. При наведении курсора мыши на число - состояние снежного покрова и степень покрытия местности в баллах.